Regional Weather Roundup
Issued by NWS Upton, NY

Current Version | Previous Version | Text Only | Print | Product List | Glossary On
Versions: 1 2 3 4 5 6 7 8 9 10 11 12 13 14 15 16 17 18 19 20 21 22 23 24 25 26 27 28 29 30 31 32 33 34 35 36 37 38 39 40 41 42 43 44 45 46 47 48 49 50
000 ASUS41 KOKX 261508 RWROKX REGIONAL WEATHER ROUNDUP NATIONAL WEATHER SERVICE NEW YORK NY 1100 AM EDT MON SEP 26 2016 NOTE: "FAIR" INDICATES FEW OR NO CLOUDS BELOW 12,000 FEET WITH NO SIGNIFICANT WEATHER AND/OR OBSTRUCTIONS TO VISIBILITY. NYZ071-072-176-178-NJZ106-104-261600- NEW YORK CITY METRO AREA CITY SKY/WX TMP DP RH WIND PRES REMARKS Central Park SUNNY 66 46 48 VRB3 30.20F LaGuardia APRT PTSUNNY 69 46 43 E8 30.17F Kennedy INTL PTSUNNY 69 47 45 E13 30.19F Newark/Liberty PTSUNNY 67 47 48 VRB3 30.17F Bronx Bot Gard N/A 66 46 48 S6 30.19S Wall St Helipt MOSUNNY 72 48 43 S6 30.19S Teterboro SUNNY 66 45 46 E10 30.17F $$ NYZ177-179-078>081-261600- LONG ISLAND NEW YORK CITY SKY/WX TMP DP RH WIND PRES REMARKS Farmingdale SUNNY 67 47 48 SE12 30.19F MacArthur/ISP PTSUNNY 66 48 52 SE13 30.19F Shirley SUNNY 64 48 56 E7 30.21F Riverhead NOT AVBL Westhampton SUNNY 63 46 54 E10 30.22F Southampton N/A 63 48 59 SE7 30.17F Bridgehampton N/A 63 48 59 CALM 30.06F East Hampton FAIR 63 44 49 SE8 30.20F Montauk N/A 63 46 54 CALM 30.23S $$ NYZ052-065-067-261600- HUDSON VALLEY CITY SKY/WX TMP DP RH WIND PRES REMARKS White Plains MOSUNNY 64 48 56 E10G17 30.19F Newburgh SUNNY 61 46 59 E7 30.20F Montgomery SUNNY 63 45 51 CALM 30.18F Poughkeepsie SUNNY 62 40 44 VRB5 30.17F Albany MOSUNNY 57 39 51 S10 30.18F $$ NJZ001-105-106-008-010-013-015-019>022-104-261600- NEW JERSEY CITY SKY/WX TMP DP RH WIND PRES REMARKS Newark/Liberty PTSUNNY 67 47 48 VRB3 30.17F Teterboro SUNNY 66 45 46 E10 30.17F Caldwell SUNNY 65 48 54 VRB5 30.18F Morristown MOSUNNY 64 48 55 CALM 30.18F Somerville MOSUNNY 67 48 50 S6 30.16F Linden NOT AVBL Sussex MOSUNNY 61 46 57 E5 30.17F Abdover N/A 63 46 54 MISG 30.17F Trenton SUNNY 67 52 58 S8 30.17F Millville SUNNY 70 53 54 SE10G20 30.18S Atlantic City SUNNY 70 47 43 S12 30.19R Wrightstown SUNNY 69 50 50 S10 30.15F Toms River SUNNY 70 50 49 S8 30.19F Belmar SUNNY 67 49 52 S5 30.19F $$ PAZ047>061-062-071-261600- EASTERN PENNSYLVANIA CITY SKY/WX TMP DP RH WIND PRES REMARKS Philadelphia PTSUNNY 69 53 56 S9 30.17F Allentown MOSUNNY 64 46 52 SE7 30.15F Scranton CLOUDY 66 47 50 S9 30.12F $$ CTZ002-004>006-009-010-012-RIZ004-006-007-MAZ004-011-015-261600- SOUTHERN NEW ENGLAND IN CT CITY SKY/WX TMP DP RH WIND PRES REMARKS Bradley INTL MOSUNNY 58 41 53 NE5 30.22F Hartford SUNNY 57 41 55 CALM 30.21F Danbury SUNNY 61 42 49 SE9 30.20F Wtrbury/Oxford MOSUNNY 61 36 39 SE7 30.23F Bridgeport SUNNY 63 46 54 E9 30.21F Meriden SUNNY 62 40 44 VRB3 30.21F New Haven MOSUNNY 62 40 44 E8 30.21F Chester FAIR 61 37 41 E6 30.21F Groton SUNNY 63 41 44 SE6 30.21F Wilimantic SUNNY 60 41 49 CALM 30.22F IN RI CITY SKY/WX TMP DP RH WIND PRES REMARKS Providence MOSUNNY 61 37 41 VRB3 30.22F Block Island SUNNY 60 47 61 NE9 30.22 Westerly SUNNY 62 40 44 SE3 30.22F IN MA CITY SKY/WX TMP DP RH WIND PRES REMARKS Boston MOSUNNY 61 38 42 VRB5 30.20F Worcester SUNNY 56 35 45 VRB6 30.21F Westfield SUNNY 58 41 53 CALM 30.21F Provincetown SUNNY 60 41 49 N7 30.21F Nantucket SUNNY 62 41 46 NE3 30.20F $$ ANZ330-335-338-340-345-350-353-355-261600- COASTAL MARINE OBSERVATIONS STATION/POSITION TIME SKY/WX TEMP WIND PRES VSBY WAVE AIR SEA DIR/SP/G HT/PER (UTC) (F) (DEG/KT/KT) (MB) (MI) (FT/S) NY HARB ENTRANCE 1450 66 71 140/ 10/ 14 1022.0 2/10 20S FIRE ISLAND 1450 65 69 150/ 10/ 12 1022.3 2/10 GREAT SOUTH BAY 1430 64 69 120/ 10/ 14 N/A 23 SSW MONTAUK P 1450 62 68 110/ 4/ 8 1023.5 2/10 15 E BARNEGAT LI 1400 70 N/A 2/10 HUDSON CANYON 1350 66 69 1022.7 2/ 9 KINGS POINT 1448 65 72 1021.8 EXECUTION ROCKS 1445 65 100/ 6/ 12 N/A CENTRAL LI SOUND 1415 59 72 90/ 8/ 12 N/A 1/ 3 EASTERN LI SOUND NOT AVBL ROBBINS REEF 1448 65 160/ 8/ 10 1022.1 $$ >>>>>>>>>>>>>>>>>>>>>>>>>>>> KEY <<<<<<<<<<<<<<<<<<<<<<<<<<< > < > SKY/WX - Sky Condition/Present Weather < > TMP - Temperature in Fahrenheit < > DP - Dew Point in Fahrenheit < > RH - Relative Humidity in Percent < > WIND - Direction (from) and Speed in MPH < > PRES - Mean Sea Level Pressure (inches of Hg) < > WCI - Wind Chill Index < > VSB - VISIBILITY IN MILES < > HX - HEAT INDEX < > TC - TEMPERATURE IN CELSIUS < > VRB - VARIABLE WIND DIRECTION < > < >>>>>>>>>>>>>>>>>>>>>>>>>>>> KEY <<<<<<<<<<<<<<<<<<<<<<<<<<<

USA.gov is the U.S. government's official web portal to all federal, state and local government web resources and services.